Change the Weather History Date:

Saturday, May 25, 2013

  Actual Average Record
Temperature  
Mean Temperature 60 °F 68 °F  
Max Temperature 74 °F 80 °F 94 °F (1911)
Min Temperature 45 °F 57 °F 35 °F (1925)
Degree Days  
Heating Degree Days 5 2  
Month to date heating degree days 82 80  
Since 1 July heating degree days 4530 4535  
Cooling Degree Days 0 5  
Month to date cooling degree days 79 74  
Year to date cooling degree days 113 101  
Growing Degree Days 9 (Base 50)    
Moisture  
Dew Point 45 °F    
Average Humidity 63    
Maximum Humidity 93    
Minimum Humidity 33    
Precipitation  
Precipitation 0.01 in 0.16 in 2.23 in (2009)
Month to date precipitation 4.10 4.32  
Year to date precipitation 21.57 19.20  
Snow  
Snow 0.00 in 0.00 in 0.00 in (2002)
Month to date snowfall 0.0 0.0  
Since 1 July snowfall 12.3 11.8  
Snow Depth 0.00 in    
Sea Level Pressure  
Sea Level Pressure 30.29 in    
Wind  
Wind Speed 3 mph (ENE)    
Max Wind Speed 14 mph    
Max Gust Speed 17 mph    
Visibility 10 miles    
Events Rain    
T = Trace of Precipitation, MM = Missing Value Source: NWS Daily Summary

Daily Weather History Graph

Daily Weather History Graph

Search for Another Location

Airport or City:

Trip Planner

Search our weather history database for the weather conditions in past years. The results will help you decide how hot, cold, wet, or windy it might be!

Date:

Astronomy

May. 25, 2013 Rise Set
Actual Time 5:32 AM CDT 8:02 PM CDT
Civil Twilight 5:01 AM CDT 8:32 PM CDT
Nautical Twilight 4:24 AM CDT 9:10 PM CDT
Astronomical Twilight 3:42 AM CDT 9:52 PM CDT
Moon 8:50 PM CDT (5/25) 5:58 AM CDT (5/25)
Length of Visible Light 15h 30m
Length of Day
14h 29m
Full, 100% of the Moon is Illuminated
May 25
Full
May 31
Last Quarter
Jun 8
New
Jun 16
First Quarter
Jun 23
Full

Hourly Weather History & Observations

Time (CDT) Temp. Windchill Dew Point Humidity Pressure Visibility Wind Dir Wind Speed Gust Speed Precip Events Conditions
12:54 AM 50.0 °F - 46.0 °F 86% 30.33 in 10.0 mi Calm Calm - N/A   Clear
1:54 AM 48.9 °F - 44.1 °F 83% 30.31 in 10.0 mi ENE 3.5 mph - N/A   Clear
2:54 AM 46.9 °F - 44.1 °F 90% 30.31 in 10.0 mi Calm Calm - N/A   Clear
3:54 AM 46.9 °F - 43.0 °F 86% 30.30 in 10.0 mi Calm Calm - N/A   Clear
4:54 AM 45.0 °F 43.5 °F 42.1 °F 90% 30.30 in 10.0 mi North 3.5 mph - N/A   Clear
5:54 AM 46.0 °F - 43.0 °F 89% 30.32 in 10.0 mi Calm Calm - N/A   Clear
6:54 AM 50.0 °F - 45.0 °F 83% 30.33 in 10.0 mi Calm Calm - N/A   Clear
7:54 AM 53.1 °F - 48.0 °F 83% 30.36 in 10.0 mi Calm Calm - N/A   Clear
8:54 AM 62.1 °F - 48.0 °F 60% 30.38 in 10.0 mi Calm Calm - N/A   Clear
9:54 AM 66.0 °F - 44.1 °F 45% 30.37 in 10.0 mi Calm Calm - N/A   Clear
10:54 AM 68.0 °F - 42.1 °F 39% 30.34 in 10.0 mi Variable 3.5 mph - N/A   Clear
11:54 AM 69.1 °F - 41.0 °F 36% 30.35 in 10.0 mi SE 3.5 mph - N/A   Clear
12:54 PM 73.0 °F - 42.1 °F 33% 30.34 in 10.0 mi Calm Calm - N/A   Clear
1:54 PM 73.0 °F - 42.1 °F 33% 30.31 in 10.0 mi Calm Calm - N/A   Clear
2:54 PM 73.0 °F - 45.0 °F 37% 30.30 in 10.0 mi Calm Calm - N/A   Mostly Cloudy
3:54 PM 73.0 °F - 43.0 °F 34% 30.27 in 10.0 mi NE 3.5 mph - N/A   Mostly Cloudy
4:54 PM 73.0 °F - 44.1 °F 35% 30.25 in 10.0 mi ENE 5.8 mph - N/A   Mostly Cloudy
5:54 PM 72.0 °F - 43.0 °F 35% 30.20 in 10.0 mi SE 6.9 mph - N/A   Clear
6:54 PM 70.0 °F - 43.0 °F 38% 30.18 in 10.0 mi SSE 3.5 mph - N/A   Partly Cloudy
7:54 PM 66.9 °F - 48.0 °F 51% 30.19 in 10.0 mi ENE 3.5 mph - N/A   Mostly Cloudy
8:54 PM 64.9 °F - 50.0 °F 58% 30.21 in 10.0 mi NE 8.1 mph - N/A   Overcast
9:54 PM 64.0 °F - 48.9 °F 58% 30.22 in 10.0 mi ENE 9.2 mph - N/A   Overcast
10:54 PM 62.1 °F - 48.0 °F 60% 30.24 in 10.0 mi ENE 9.2 mph - 0.00 in Rain Light Rain
11:54 PM 62.1 °F - 46.0 °F 56% 30.23 in 10.0 mi ENE 8.1 mph - 0.00 in   Overcast